Погода Нижний Тагил

Погода Нижний Тагил : погода сейчас, прогноз погоды и архив. Всё, что Вы хотите узнать о погоде Нижний Тагил!

Хотите узнать прогноз погоды Нижний Тагил? Тогда Вам сюда: Погода Нижний Тагил

Поиск расширенной информации на нашем сайте:

Другие новости

Новости СМИ2

Главная страница сайта

Новости сайта

02.10.2013

Напоминаем, что на нашем новом сайте вы можете получить высокодетализированные прогнозы погоды по пунктам России, СНГ и мира (включающие важные для авиации метеовеличины, такие как направление и скорость ветра, видимость, явления погоды, количество и форма облачности, нижняя и верхняя граница облачности), а также ознакомиться с разнообразными материалами по авиационной метеорологии и подборкой полезных ссылок на эту тему.

Сайт Метеоцентр.Азия посвящён разработке технологий оптимизации авиаметеорологического обслуживания, включая проектирование и перспективное создание нескольких автоматизированных авиаметеорологических систем:
- система выпуска высокодетальных прогностических карт явлений погоды для нижнего воздушного пространства по России и ближнему зарубежью;
- система верификации прогнозов TAF (выпускаемых синоптиками официальных АМСГ РФ и ближнего зарубежья) и AUTOTAF (выпускаемых сайтом Метеоцентр.Азия) - выявление ошибок, онлайн-сопоставление с фактической погодой METAR, автоматическое внесение коррективов в прогнозы при резком отклонении фактической погоды от прогноза, подсчёт оправдываемости прогнозов по элементам и в целом;
- система обработки, анализа и отображения авиаметеорологической информации для применения провайдерами метеорологической информации.

Рекомендуем: Сравнить цены на лазерная гравировка.

Погода Нижний Тагил - сегодня

Время (UTC), дата Ветер
(°,м/с) 
Видим.   Явления Облачность Т
(°С)
Тd
(°С)
f(%) Тe
(°С)
Pmin
(гПа)
dP
(гПа)
Po
(мм)
O2
(г/м3)
Тmin Tmax R s Состояние
почвы
00 22.05.16 100 (В) 20000 м    ясно 
+8.2 +4.1 75 +9  1022.4  -0.3  743  290           
03 22.05.16 150 (ЮВ) 20000 м    6/0 средняя, верхняя 
[Ac trans|Cc]
+19 +4.3 38 +19  1020.8  -0.4  743  279  +7        сухая 
06 22.05.16 140 (ЮВ) 20000 м    8/0 верхняя 
[Cc]
+23.9 +1 22 +24  1019.7  -0.7  742  275           
12 22.05.16 120 (ЮВ) 7-11{15}  20000 м    6/0 средняя, верхняя 
[Ac lent|Cc]
+24.9 +0.5 20 +25  1017.1  -1.6  740  273           
18 22.05.16 120 (ЮВ) 20000 м    4/0 верхняя 
[Cc]
+16.8 +3.6 41 +17  1017.3  0.3  740  280           
21 22.05.16 180 (Ю) 20000 м    6/6 600 м 
[Sc]
+14.5 +3.4 47 +16  1018.3  0.7  741  283           
00 23.05.16 120 (ЮВ) 20000 м    8/8 600 м 
[Sc]
+7.9 +4.4 79 +8  1019.6  0.5  741  289           
03 23.05.16 130 (ЮВ) 20000 м    8/0 верхняя 
[Cs]
+18.1 +5 42 +19  1019.1  0.6  741  279  +7.8        сухая 
06 23.05.16 140 (ЮВ) 20000 м    9/0 средняя, верхняя 
[Ac As|Cc]
+25 +5.4 28 +25  1018.5  0.2  742  273           
09 23.05.16 210 (ЮЗ) 3{10}  20000 м    8/8 600 м кучево-дожд., средняя 
[Cb calv|Ac trans]
+27.3 +1.9 19 +27  1018.2  0.1  742  271           
12 23.05.16 270 (З) 3{10}  20000 м    8/8 600 м кучево-дожд., средняя 
[Cb cap|Ac As]
+26.3 +2.9 22 +26  1018.5  0.2  742  272           
18 23.05.16 130 (ЮВ) 20000 м  {ливн. осадки}  8/3 600 м средняя 
[Sc|Ac trans]
+14.3 +7.3 63 +15  1021.5  743  283           
21 23.05.16 110 (В) 20000 м  {ливн. осадки}  8/3 600 м средняя 
[Sc|Ac trans]
+11.1 +6.8 75 +12  1022.2  0.3  743  287           
00 24.05.16 тихо ()   20000 м    6/3 600 м средняя 
[Sc|Ac As]
+8.8 +6.2 84 +9  1022.7  0.2  743  289           
03 24.05.16 тихо ()   20000 м    8/4 600 м средняя 
[Sc|Ac As]
+18.9 +10.7 59 +21  1021.8  0.3  744  278  +8.7        сухая 
06 24.05.16 250 (З) 20000 м    4/0 верхняя 
[Cc]
+24.9 +5.9 29 +25  1020.8  -0.4  743  274           
09 24.05.16 290 (З) 20000 м    8/5 600 м средняя 
[Sc|Ac As]
+26.9 +2.1 20 +27  1019.5  -1  742  272           
12 24.05.16 070 (В) 20000 м    9/6 600 м кучево-дожд., средняя 
[Cb cap|As op]
+23.9 +4.4 28 +24  1019  -0.8  742  274           
18 24.05.16 120 (ЮВ) 20000 м    4/0 верхняя 
[Cc]
+12.3 +7.3 71 +13  1019.7  742  285           
21 24.05.16 100 (В) 20000 м    3/0 верхняя 
[Cc]
+9.2 +6.7 84 +10  1020.1  742  288           
00 25.05.16 тихо ()   20000 м    ясно 
+8.1 +7 93 +8  1020  -0.2  741  289           
03 25.05.16 230 (ЮЗ) 20000 м    3/0 верхняя 
[Cc]
+17.1 +10.6 66 +21  1018.7  -0.3  741  279  +7.9        сухая 
06 25.05.16 360 (С) 4000 м  дым  3/0 верхняя 
[Ci fib]
+25.3 +5.5 28 +25  1017.1  -0.8  741  272           
09 25.05.16 240 (ЮЗ) 20000 м    9/9 600 м кучево-дожд. 
[Cb cap]
+24.6 +4.4 27 +25  1015.9  -1.2  740  273           
12 25.05.16 250 (З) 20000 м    10/8 600 м средняя, верхняя 
[Sc|Ac lent|Cc]
+25.6 +3.8 24 +26  1014.8  -1  739  272           
Время (UTC), дата Ветер
(°,м/с) 
Видим.   Явления Облачность Т
(°С)
Тd
(°С)
f(%) Тe
(°С)
Pmin
(гПа)
dP
(гПа)
Po
(мм)
O2
(г/м3)
Тmin Tmax R s Состояние
почвы

Для получения пояснительной информации подведите курсор к названию столбца.

ПОГОДА Нижний Тагил - архив

Всё, что Вы хотите узнать о погоде Нижний Тагил - удобно и подробно!

Выберите нужную дату (начиная с 1 января 2015* года) и нажмите кнопку "Найти".
Будут отображены архивные сводки погоды по пункту Нижний Тагил, начиная с указанной даты.


Отображать данные в формате CSV (для использования в таблицах Excel)


Внимание! Наш архив погоды предназначен исключительно для личного некоммерческого использования в познавательных целях. Если Вам необходимы официальные справки о состоянии погоды (для производственных, юридических, коммерческих и т.п. целей), обращайтесь в органы Росгидромета.

*Примечание: данная дата относится к архиву по метеостанциям СССР (Россия, СНГ, Балтия).
Архив по метеостанциям Зарубежной Европы и Азии (кроме Китая) хранится 10 дней, по другим регионам земного шара (Китай, Африка, Америка, Австралия, Океания) - 1 день.

Нижний Тагил - район местоположения метеостанции


Название, широта, долгота, высота метеостанции:
Нижний Тагил 57.9°ш. 60.1°д. 260 м над ур. моря [Российская Федерация]

Дополнительная информация

В oтличие oт бoльшинства пoгoдных сайтoв мы публикуем пoдрoбную метеoинфoрмацию в детальнoм прoфессиoнальнoм фoрмате.

Характеристики температуры и влажнoсти вoздуха измеряются на высoте 2 м в тени вдали oт зданий и деревьев.
Скoрoсть ветра измеряется на высoте 10 м (на урoвне рoста челoвека скoрoсть ветра ниже в 1.5-2 раза). Если метеoстанция нахoдится в гoрoде или в лесу, тo скoрoсть ветра занижена на 2-4 м/с пo сравнению с oткрытым местoм. Скoрoсть ветра над акватoриями крупных рек и oзёр, а также на вершинах хoлмoв на 2-5 м/с выше, чем в oбычных услoвиях.
Атмoсфернoе давление в разных тoчках местнoсти мoжет значительнo oтличаться oт давления на метеoстанции, в зависимoсти oт услoвий рельефа (при пoдъёме на 10 м давление пoнижается примернo на 1 мм рт.ст.).